This is the latest recevied weather packets stored in our database for station/object F5GJJ-13. If no packets are shown the sender has not sent any weather packets the latest 10 day(s).
| Time | Temp. | Humidity | Pressure | Rain* | Wind** | Luminosity | Snow |
|---|---|---|---|---|---|---|---|
| 1777838170 | 16.67° C | 61% | 1014.6 hPa | 0 mm | - | - | - |
| 1777837284 | 16.67° C | 63% | 1014.6 hPa | 0 mm | - | - | - |
| 1777836369 | 16.67° C | 63% | 1014.6 hPa | 0 mm | - | - | - |
| 1777836322 | 16.67° C | 63% | 1014.6 hPa | 0 mm | - | - | - |
| 1777835364 | 17.22° C | 62% | 1014.6 hPa | 0 mm | - | - | - |
| 1777834569 | 17.78° C | 63% | 1014.6 hPa | 0 mm | - | - | - |
| 1777834403 | 17.78° C | 62% | 1014.6 hPa | 0 mm | - | - | - |
| 1777833442 | 18.33° C | 61% | 1014.6 hPa | 0 mm | - | - | - |
| 1777832768 | 18.89° C | 60% | 1014.6 hPa | 0 mm | - | - | - |
| 1777832484 | 18.89° C | 58% | 1014.6 hPa | 0 mm | - | - | - |
| 1777831523 | 19.44° C | 59% | 1014.6 hPa | 0 mm | - | - | - |
| 1777830970 | 19.44° C | 59% | 1014.6 hPa | 0 mm | - | - | - |
| 1777830563 | 20° C | 56% | 1013.6 hPa | 0 mm | - | - | - |
| 1777829603 | 21.11° C | 55% | 1014.6 hPa | 0 mm | - | - | - |
| 1777829170 | 20.56° C | 55% | 1014.6 hPa | 0 mm | - | - | - |
| 1777828643 | 20.56° C | 57% | 1014.6 hPa | 0 mm | - | - | - |
| 1777827684 | 20° C | 59% | 1014.6 hPa | 0 mm | - | - | - |
| 1777827370 | 20° C | 59% | 1014.6 hPa | 0 mm | - | - | - |
| 1777826722 | 19.44° C | 60% | 1014.6 hPa | 0 mm | - | - | - |
| 1777825764 | 19.44° C | 58% | 1014.6 hPa | 0 mm | - | - | - |
| 1777825569 | 19.44° C | 58% | 1014.6 hPa | 0 mm | - | - | - |
| 1777824804 | 20° C | 56% | 1014.6 hPa | 0 mm | - | - | - |
| 1777823842 | 20.56° C | 56% | 1014.6 hPa | 0 mm | - | - | - |
| 1777823768 | 20.56° C | 56% | 1014.6 hPa | 0 mm | - | - | - |
| 1777822883 | 20° C | 56% | 1014.6 hPa | 0 mm | - | - | - |
* Rain latest hour (hover to see other rain measurements)
** Current wind speed in m/s (hover to see current wind gust speed)